Location: Bh?mavarapp?du
(16.7041°N, 80.6518°E)
Time: 03:02:01
(UTC+00:00)

Cosmos 2180 Rocket - Pass Details

Date: 21 April 2021
Orbit: 953 x 1005 km, 82.9° (Epoch: 15 May)

Event Time Altitude Azimuth Distance (km) Brightness Sun altitude
Exits shadow 14:39:43 57° 104° (ESE) 1,129 4.4 -24.9°
Maximum altitude 14:40:00 57° 92° (E) 1,122 4.4 -25.0°
Drops below altitude 10° 14:46:00 10° 15° (NNE) 2,687 6.9 -26.3°
Sets 14:48:32 0° 11° (NNE) 3,629 7.6 -26.8°
